Meridian, MS

2:42 AM CST on December 15, 2019 (GMT -0600)
Key

Weather History for KMEI - November, 2019

Change the Weather History Date:

Thursday, November 14, 2019

  Actual Average Record
Temperature  
Mean Temperature 42 °F 55 °F  
Max Temperature 49 °F 68 °F 84 °F (1921)
Min Temperature 35 °F 42 °F 21 °F (1963)
Degree Days  
Heating Degree Days 23 10  
Month to date heating degree days 205 122  
Since 1 July heating degree days 275 246  
Cooling Degree Days 0 0  
Month to date cooling degree days 0 13  
Year to date cooling degree days 2846 2026  
Moisture  
Dew Point 35 °F    
Average Humidity 73    
Maximum Humidity 89    
Minimum Humidity 54    
Precipitation  
Precipitation 0.02 in 0.17 in 2.07 in (1929)
Month to date precipitation 1.16 2.11  
Year to date precipitation 56.01 48.26  
Sea Level Pressure  
Sea Level Pressure 30.27 in    
Wind  
Wind Speed 4 mph ()    
Max Wind Speed 8 mph    
Max Gust Speed 10 mph    
Visibility 10.0 miles    
Events Rain    
T = Trace of Precipitation, MM = Missing Value Source: Averaged Metar Reports

Daily Weather History Graph

Daily Weather History Graph

Search for Another Location

Airport or City:

Astronomy

Nov. 14, 2019 Rise Set
Actual Time 6:23 AM CST 4:55 PM CST
Civil Twilight 5:57 AM CST 5:21 PM CST
Nautical Twilight 5:27 AM CST 5:50 PM CST
Astronomical Twilight 4:58 AM CST 6:19 PM CST
Moon 6:45 PM CST (11/14) 8:14 AM CST (11/14)
Length of Visible Light 11h 23m
Length of Day
10h 32m
Waning Gibbous, 95% of the Moon is Illuminated
Nov 14
Waning Gibbous
Nov 19
Last Quarter
Nov 26
New
Dec 4
First Quarter
Dec 11
Full

Hourly Weather History & Observations

Time (CST) Temp. Windchill Dew Point Humidity Pressure Visibility Wind Dir Wind Speed Gust Speed Precip Events Conditions
12:58 AM 36.0 °F - 30.9 °F 82% 30.25 in 10.0 mi Calm Calm - N/A   Clear
1:58 AM 36.0 °F 32.1 °F 32.0 °F 86% 30.25 in 10.0 mi NW 4.6 mph - N/A   Clear
2:58 AM 37.9 °F 34.4 °F 33.1 °F 83% 30.24 in 10.0 mi NNW 4.6 mph - N/A   Mostly Cloudy
3:58 AM 37.9 °F 35.5 °F 34.0 °F 86% 30.24 in 10.0 mi NNW 3.5 mph - N/A   Overcast
4:58 AM 39.9 °F - 33.1 °F 77% 30.26 in 10.0 mi Calm Calm - N/A   Overcast
5:58 AM 39.9 °F 35.1 °F 33.1 °F 77% 30.26 in 10.0 mi North 6.9 mph - N/A   Overcast
6:58 AM 39.9 °F 36.7 °F 33.1 °F 77% 30.27 in 10.0 mi NNW 4.6 mph - N/A   Overcast
7:58 AM 42.1 °F 37.7 °F 32.0 °F 67% 30.29 in 10.0 mi ENE 6.9 mph - N/A   Overcast
8:58 AM 43.0 °F 41.3 °F 33.1 °F 68% 30.30 in 10.0 mi NNE 3.5 mph - N/A   Mostly Cloudy
9:58 AM 45.0 °F 42.6 °F 33.1 °F 63% 30.30 in 10.0 mi North 4.6 mph - N/A   Scattered Clouds
10:58 AM 46.9 °F - 33.1 °F 59% 30.29 in 10.0 mi Variable 3.5 mph - N/A   Scattered Clouds
11:58 AM 48.0 °F - 33.1 °F 56% 30.25 in 10.0 mi NNE 6.9 mph - N/A   Overcast
12:58 PM 48.9 °F - 33.1 °F 54% 30.25 in 10.0 mi North 6.9 mph - N/A   Overcast
1:58 PM 48.9 °F - 33.1 °F 54% 30.24 in 10.0 mi North 6.9 mph - N/A   Overcast
2:58 PM 48.9 °F - 33.1 °F 54% 30.24 in 10.0 mi North 5.8 mph - N/A   Overcast
3:58 PM 48.0 °F - 37.0 °F 66% 30.25 in 10.0 mi NNE 4.6 mph - 0.00 in Rain Light Rain
4:58 PM 46.9 °F - 39.0 °F 74% 30.25 in 10.0 mi North 4.6 mph - 0.00 in   Overcast
6:58 PM 45.0 °F 41.8 °F 39.0 °F 80% 30.27 in 10.0 mi NNE 5.8 mph - 0.00 in Rain Light Rain
7:58 PM 44.1 °F - 39.0 °F 82% 30.27 in 10.0 mi Calm Calm - 0.02 in Rain Light Rain
8:58 PM 44.1 °F 42.5 °F 39.9 °F 85% 30.27 in 10.0 mi North 3.5 mph - 0.00 in   Mostly Cloudy
9:58 PM 44.1 °F 40.8 °F 39.9 °F 85% 30.30 in 10.0 mi NNW 5.8 mph - 0.00 in   Overcast
10:58 PM 44.1 °F 41.5 °F 39.9 °F 85% 30.29 in 10.0 mi NNW 4.6 mph - 0.00 in Rain Light Rain
11:58 PM 44.1 °F 40.8 °F 39.9 °F 85% 30.27 in 10.0 mi North 5.8 mph - 0.00 in   Mostly Cloudy